Hourly Weather Hopa

Today, 11 May, Tuesday

Time Temperature Precipitation Wind Pressure Humidity
00:00 +5°C° 0 mm 2 mps 755 mmHg 75%
01:00 +5°C° 0 mm 2 mps 755 mmHg 73%
02:00 +5°C° 0 mm 2 mps 754 mmHg 71%
03:00 +5°C° 0 mm 2 mps 754 mmHg 69%
04:00 +6°C° 0 mm 2 mps 754 mmHg 66%
05:00 +7°C° 0 mm 2 mps 753 mmHg 64%
06:00 +7°C° 0 mm 2 mps 753 mmHg 61%
07:00 +10°C° 0 mm 2 mps 753 mmHg 56%
08:00 +13°C° 0 mm 2 mps 752 mmHg 51%
09:00 +15°C° 0 mm 2 mps 752 mmHg 46%
10:00 +17°C° 0 mm 2 mps 751 mmHg 46%
11:00 +18°C° 0 mm 2 mps 751 mmHg 47%
12:00 +19°C° 0 mm 2 mps 751 mmHg 47%
13:00 +19°C° 0 mm 2 mps 751 mmHg 49%
14:00 +19°C° 0 mm 2 mps 750 mmHg 51%
15:00 +19°C° 0 mm 2 mps 750 mmHg 52%
16:00 +19°C° 0 mm 1 mps 750 mmHg 57%
17:00 +18°C° 0 mm 1 mps 750 mmHg 61%
18:00 +16°C° 0 mm 1 mps 751 mmHg 65%
19:00 +15°C° 0 mm 1 mps 751 mmHg 71%
20:00 +13°C° 0 mm 1 mps 751 mmHg 76%
21:00 +12°C° 0 mm 1 mps 751 mmHg 81%
22:00 +12°C° 0 mm 1 mps 751 mmHg 78%
23:00 +10°C° 0 mm 2 mps 751 mmHg 75%

Tomorrow, 12 May, Wednesday

Time Temperature Precipitation Wind Pressure Humidity
00:00 +10°C° 0 mm 2 mps 751 mmHg 71%
01:00 +10°C° 0 mm 2 mps 751 mmHg 70%
02:00 +12°C° 0 mm 2 mps 750 mmHg 68%
03:00 +12°C° 0 mm 2 mps 750 mmHg 66%
04:00 +12°C° 0 mm 2 mps 749 mmHg 67%
05:00 +13°C° 0 mm 2 mps 749 mmHg 68%
06:00 +14°C° 0 mm 2 mps 749 mmHg 68%
07:00 +17°C° 0 mm 2 mps 749 mmHg 61%
08:00 +19°C° 0 mm 2 mps 748 mmHg 54%
09:00 +23°C° 0 mm 2 mps 748 mmHg 46%
10:00 +25°C° 0 mm 2 mps 748 mmHg 43%
11:00 +26°C° 0 mm 2 mps 748 mmHg 39%
12:00 +28°C° 0 mm 1 mps 747 mmHg 36%
13:00 +28°C° 0 mm 1 mps 747 mmHg 37%
14:00 +28°C° 0 mm 1 mps 747 mmHg 39%
15:00 +28°C° 0 mm 1 mps 747 mmHg 40%
16:00 +27°C° 0 mm 1 mps 747 mmHg 49%
17:00 +26°C° 0 mm 1 mps 747 mmHg 57%
18:00 +24°C° 0 mm 1 mps 747 mmHg 65%
19:00 +23°C° 0 mm 1 mps 747 mmHg 66%
20:00 +21°C° 0 mm 2 mps 747 mmHg 66%
21:00 +19°C° 0 mm 2 mps 747 mmHg 66%
22:00 +19°C° 0 mm 2 mps 747 mmHg 62%
23:00 +19°C° 0 mm 2 mps 747 mmHg 59%

Day after tomorrow, 13 May, Thursday

Time Temperature Precipitation Wind Pressure Humidity
00:00 +19°C° 0 mm 2 mps 747 mmHg 55%
01:00 +19°C° 0 mm 2 mps 746 mmHg 54%
02:00 +19°C° 0 mm 2 mps 746 mmHg 53%
03:00 +19°C° 0 mm 3 mps 746 mmHg 53%
04:00 +19°C° 0 mm 3 mps 746 mmHg 53%
05:00 +20°C° 0 mm 3 mps 746 mmHg 54%
06:00 +20°C° 0 mm 3 mps 746 mmHg 55%
07:00 +24°C° 0 mm 3 mps 746 mmHg 47%
08:00 +27°C° 0 mm 2 mps 746 mmHg 40%
09:00 +30°C° 0 mm 2 mps 746 mmHg 32%
10:00 +32°C° 0 mm 2 mps 746 mmHg 29%
11:00 +33°C° 0 mm 1 mps 745 mmHg 25%
12:00 +34°C° 0 mm 1 mps 745 mmHg 22%
13:00 +34°C° 0 mm 1 mps 745 mmHg 23%
14:00 +35°C° 0 mm 1 mps 745 mmHg 24%
15:00 +35°C° 0 mm 1 mps 744 mmHg 24%
16:00 +34°C° 0 mm 2 mps 745 mmHg 34%
17:00 +31°C° 0 mm 2 mps 745 mmHg 45%
18:00 +30°C° 0 mm 2 mps 745 mmHg 55%
19:00 +28°C° 0 mm 2 mps 745 mmHg 53%
20:00 +26°C° 0 mm 2 mps 746 mmHg 52%
21:00 +24°C° 0 mm 2 mps 746 mmHg 51%
22:00 +24°C° 0 mm 2 mps 746 mmHg 51%
23:00 +24°C° 0 mm 2 mps 746 mmHg 51%

14 May, Friday

Time Temperature Precipitation Wind Pressure Humidity
00:00 +24°C° 0 mm 2 mps 746 mmHg 51%
01:00 +23°C° 0 mm 2 mps 746 mmHg 52%
02:00 +23°C° 0 mm 2 mps 746 mmHg 53%
03:00 +23°C° 0 mm 2 mps 747 mmHg 54%
04:00 +23°C° 0 mm 2 mps 747 mmHg 56%
05:00 +23°C° 0 mm 2 mps 747 mmHg 57%
06:00 +23°C° 0 mm 2 mps 747 mmHg 59%
07:00 +26°C° 0 mm 2 mps 746 mmHg 51%
08:00 +29°C° 0 mm 2 mps 746 mmHg 43%
09:00 +32°C° 0 mm 1 mps 746 mmHg 35%
10:00 +33°C° 0 mm 1 mps 746 mmHg 31%
11:00 +34°C° 0 mm 1 mps 746 mmHg 27%
12:00 +36°C° 0 mm 1 mps 746 mmHg 23%
13:00 +36°C° 0 mm 1 mps 745 mmHg 23%
14:00 +36°C° 0 mm 1 mps 745 mmHg 23%
15:00 +36°C° 0 mm 1 mps 745 mmHg 24%
16:00 +34°C° 0 mm 1 mps 745 mmHg 33%
17:00 +33°C° 0 mm 1 mps 745 mmHg 42%
18:00 +31°C° 0 mm 2 mps 745 mmHg 51%
19:00 +29°C° 0 mm 2 mps 746 mmHg 49%
20:00 +27°C° 0 mm 2 mps 746 mmHg 47%
21:00 +26°C° 0 mm 2 mps 747 mmHg 46%
22:00 +25°C° 0 mm 2 mps 747 mmHg 48%
23:00 +24°C° 0 mm 3 mps 748 mmHg 51%

15 May, Saturday

Time Temperature Precipitation Wind Pressure Humidity
00:00 +22°C° 0 mm 3 mps 749 mmHg 53%
01:00 +21°C° 0 mm 3 mps 749 mmHg 58%
02:00 +20°C° 0 mm 3 mps 750 mmHg 62%
03:00 +19°C° 0 mm 3 mps 750 mmHg 67%
04:00 +20°C° 0 mm 2 mps 750 mmHg 67%
05:00 +20°C° 0 mm 2 mps 750 mmHg 66%
06:00 +22°C° 0 mm 1 mps 750 mmHg 66%
07:00 +23°C° 0 mm 1 mps 750 mmHg 61%
08:00 +25°C° 0 mm 1 mps 750 mmHg 56%
09:00 +27°C° 0 mm 2 mps 750 mmHg 52%
10:00 +28°C° 0 mm 2 mps 750 mmHg 50%
11:00 +29°C° 0 mm 2 mps 750 mmHg 48%
12:00 +29°C° 0 mm 2 mps 750 mmHg 46%
13:00 +29°C° 0.1 mm 2 mps 750 mmHg 47%
14:00 +29°C° 0.1 mm 1 mps 750 mmHg 48%
15:00 +29°C° 0.1 mm 1 mps 749 mmHg 48%
16:00 +28°C° 0.1 mm 1 mps 749 mmHg 53%
17:00 +26°C° 0.1 mm 1 mps 750 mmHg 59%
18:00 +25°C° 0.1 mm 1 mps 750 mmHg 64%
19:00 +24°C° 0 mm 1 mps 750 mmHg 69%
20:00 +22°C° 0 mm 1 mps 750 mmHg 74%
21:00 +21°C° 0 mm 1 mps 750 mmHg 80%
22:00 +21°C° 0 mm 1 mps 750 mmHg 78%
23:00 +21°C° 0 mm 1 mps 750 mmHg 77%

16 May, Sunday

Time Temperature Precipitation Wind Pressure Humidity
00:00 +21°C° 0 mm 1 mps 749 mmHg 76%
01:00 +21°C° 0 mm 1 mps 749 mmHg 75%
02:00 +21°C° 0 mm 1 mps 748 mmHg 74%
03:00 +21°C° 0 mm 1 mps 748 mmHg 74%
04:00 +22°C° 0 mm 1 mps 748 mmHg 73%
05:00 +22°C° 0 mm 1 mps 747 mmHg 72%
06:00 +23°C° 0 mm 1 mps 747 mmHg 72%
07:00 +25°C° 0 mm 1 mps 747 mmHg 64%
08:00 +28°C° 0 mm 1 mps 747 mmHg 56%
09:00 +30°C° 0 mm 1 mps 746 mmHg 49%
10:00 +31°C° 0 mm 1 mps 746 mmHg 44%
11:00 +33°C° 0 mm 1 mps 745 mmHg 40%
12:00 +34°C° 0 mm 1 mps 745 mmHg 36%
13:00 +34°C° 0 mm 1 mps 744 mmHg 37%
14:00 +34°C° 0 mm 1 mps 744 mmHg 37%
15:00 +34°C° 0 mm 1 mps 744 mmHg 38%
16:00 +32°C° 0.1 mm 1 mps 743 mmHg 47%
17:00 +30°C° 0.1 mm 1 mps 743 mmHg 55%
18:00 +28°C° 0.1 mm 1 mps 743 mmHg 64%
19:00 +27°C° 0.4 mm 2 mps 743 mmHg 70%
20:00 +26°C° 0.4 mm 3 mps 744 mmHg 77%
21:00 +23°C° 0.4 mm 4 mps 744 mmHg 83%
22:00 +23°C° 0 mm 5 mps 743 mmHg 80%
23:00 +23°C° 0 mm 5 mps 743 mmHg 77%
Show more

We Need Your Consent

Meteoprog and our Service Providers may store and access personal data such as cookies, device identifiers or other similar technologies on your device and process such data to personalise content and ads, as well as provide social media features and to analyse the traffic.

  • Store and/or access information on your device

    Cookies, device identifiers or other information can be stored or accessed on your device for the purposes indicated above.

  • Personalised ads and content, ad and content measurement, audience insights, and products development

    Ads and content can be personalised based on a profile. More data can be added to better personalise ads and content. Ad and content performance can be measured. Insights about the audience who saw the ads and content can be derived. Such data can be used to develop or improve user’s experience, systems and software.

By clicking ‘I Agree’ you will allow the use of indicated cookies, device identifiers, web beacons or other similar technologies. Your settings can be changed in the browser on your device.

For certain purposes, legitimate interests may be relied on, rather than consent. You can read more about this in our Privacy and Cookie Policy.